Location: Asheville, NC
(35.6000°N, 82.5500°W)
Time: 21:21:58
(UTC-04:00)

XW-2F - Pass Details

Date: 04 January 2018
Orbit: 505 x 527 km, 97.5° (Epoch: 19 June)

Event Time Altitude Azimuth Distance (km) Brightness Sun altitude
Rises 18:09:25 0° 177° (S) 2,641 ? -8.0°
Reaches altitude 10° 18:11:33 10° 182° (S) 1,759 ? -8.4°
Maximum altitude 18:15:16 54° 260° (W) 643 ? -9.1°
Drops below altitude 10° 18:19:02 10° 339° (NNW) 1,777 ? -9.8°
Sets 18:21:11 0° 344° (NNW) 2,671 ? -10.2°
